Showing default

CONNECTA IOT-9, 64534

Orbit data source: Space-Track

CONNECTA IOT-9, 64534 is a payload satellite owned by Plan-S (TR) in SSO that was launched on Mon, 23 Jun 2025 UTC via an FALCON 9 launch vehicle from the Air Force Western Test Range (AFWTR). Payload-class satellites include a variety of spacecraft equipped with specific instruments for various scientific and technological missions. These include communications satellites like Starlink; space stations such as the ISS; scientific satellites like the Hubble; Earth observation satellites from companies like Planet Labs, Umbra, and HawkEye 360; GPS; miniature CubeSats for education and research; and military/defense satellites.

Loading next visibility...
Identifier
64534, 2025-135G
Orbit
SSO
Country
Flag of UnknownUnknown / TURK
Related business
Manufacturer
Plan-S
Mission
Operational Commercial Communications
Bus & Motor
CUBESAT 6U, Unknown motor
Mass
10 kg wet, 10 kg dry
Launch date (UTC)
2025-06-23 (8 months ago)
Launch vehicle
FALCON 9
Launch site
Air Force Western Test Range (AFWTR)
Object type
Payload
Rocket body
Debris
Shape & HBR
Box, 0.1 m
Radar Cross Section
0.080 m², Medium (>0.1 m² and < 1m²)

Expand to show TLE details & history
Last TLE update: 12 hours ago

TLE from 12 hours ago
0 CONNECTA IOT-9
1 64534U 25135G   26062.26090477  .00005651  00000-0  26688-3 0  9999
2 64534  97.4633 178.1966 0005839 165.3888 194.7517 15.19810933 38733
Epoch: 2026-03-03T06:15Z
TLE epoch observation values (Epoch: 2026-03-03T06:15:42.172Z)
Latitude
0.00003°
Longitude
-76.77163°
Altitude
513.388 km
Speed
7.605 km/s
True Right ascension
11h 52m 47s
True Declination
0° 00' 00"
Sunlit
Object was in full shadow at epoch
Visualization orbit readout
Latitude
Unknown
Longitude
Unknown
Altitude
Unknown
Speed
Unknown
Apparent Right ascension
Unknown
Apparent Declination
Unknown
Sunlit
N/A
Visualization observer readout
Local Sidereal Time
21:49:03
Azimuth
Unknown
Elevation
Unknown
Doppler factor
Unknown
Orbital elements
Apogee altitude
507.398 km
Perigee altitude
499.362 km
Semi-major axis
6,881.517 km
Eccentricity
0.00058
Inclination
97.4633°
RAAN
178.1966°
Arg. of periapsis
165.3888°
True anomaly
194.73467°
Mean anomaly
194.7517°
Eccentric anomaly
194.74319°
Mean motion
3.80204 °/min
Orbital period
94.69 mins
BSTAR
0.00026688
Loading maneuver chart data...
Computing Atmospheric mass density...
Loading historical data...
Loading historical data...
Loading historical data...
Loading historical data...
Loading historical data...
Loading historical data...
Loading historical data...

Documentation

Showing up to 5 results
|